Time,TemperatureF,DewpointF,PressureIn,WindDirection,WindDirectionDegrees,WindSpeedMPH,WindSpeedGustMPH,Humidity,HourlyPrecipIn,Conditions,Clouds,dailyrainin,SoftwareType,DateUTC
2013-03-03 00:02:00,43.0,32.0,30.03,North,11,3.0,3.0,65,0.00,,,0.00,,2013-03-03 05:02:00,
2013-03-03 00:12:00,43.0,32.0,30.03,North,11,3.0,3.0,65,0.00,,,0.00,,2013-03-03 05:12:00,
2013-03-03 00:22:00,43.0,32.0,30.04,NNE,25,0.0,0.0,66,0.00,,,0.00,,2013-03-03 05:22:00,
2013-03-03 00:32:00,42.0,32.0,30.04,NNW,328,2.0,4.0,67,0.00,,,0.00,,2013-03-03 05:32:00,
2013-03-03 00:42:00,42.0,32.0,30.04,NNW,328,2.0,4.0,67,0.00,,,0.00,,2013-03-03 05:42:00,
2013-03-03 00:52:00,42.0,31.0,30.04,WNW,283,1.0,0.0,66,0.00,,,0.00,,2013-03-03 05:52:00,
2013-03-03 01:02:00,41.0,31.0,30.05,SW,214,4.0,4.0,66,0.00,,,0.00,,2013-03-03 06:02:00,
2013-03-03 01:11:00,41.0,31.0,30.05,SW,214,4.0,4.0,66,0.00,,,0.00,,2013-03-03 06:11:00,
2013-03-03 01:21:00,41.0,31.0,30.05,NW,311,1.0,0.0,67,0.00,,,0.00,,2013-03-03 06:21:00,
2013-03-03 01:32:00,41.0,31.0,30.04,WNW,287,0.0,0.0,68,0.00,,,0.00,,2013-03-03 06:32:00,
2013-03-03 01:42:00,41.0,31.0,30.04,WNW,287,0.0,0.0,68,0.00,,,0.00,,2013-03-03 06:42:00,
2013-03-03 01:52:00,40.0,31.0,30.04,NW,319,0.0,0.0,69,0.00,,,0.00,,2013-03-03 06:52:00,
2013-03-03 02:01:00,40.0,31.0,30.04,NW,319,0.0,0.0,71,0.00,,,0.00,,2013-03-03 07:01:00,
2013-03-03 02:11:00,40.0,31.0,30.04,NW,319,0.0,0.0,71,0.00,,,0.00,,2013-03-03 07:11:00,
2013-03-03 02:21:00,40.0,32.0,30.04,NW,319,0.0,0.0,74,0.00,,,0.00,,2013-03-03 07:21:00,
2013-03-03 02:32:00,39.0,32.0,30.03,NW,319,0.0,0.0,76,0.00,,,0.00,,2013-03-03 07:32:00,
2013-03-03 02:42:00,39.0,32.0,30.03,NW,319,0.0,0.0,76,0.00,,,0.00,,2013-03-03 07:42:00,
2013-03-03 02:52:00,38.0,31.0,30.03,NW,319,0.0,0.0,76,0.00,,,0.00,,2013-03-03 07:52:00,
2013-03-03 03:01:00,38.0,32.0,30.03,West,280,1.0,0.0,78,0.00,,,0.00,,2013-03-03 08:01:00,
2013-03-03 03:11:00,38.0,32.0,30.03,West,280,1.0,0.0,78,0.00,,,0.00,,2013-03-03 08:11:00,
2013-03-03 03:21:00,38.0,32.0,30.03,West,262,0.0,0.0,78,0.00,,,0.00,,2013-03-03 08:21:00,
2013-03-03 03:31:00,38.0,31.0,30.03,West,277,0.0,0.0,76,0.00,,,0.00,,2013-03-03 08:31:00,
2013-03-03 03:42:00,38.0,31.0,30.03,West,277,0.0,0.0,76,0.00,,,0.00,,2013-03-03 08:42:00,
2013-03-03 03:54:00,38.0,31.0,30.02,NW,311,0.0,0.0,75,0.00,,,0.00,,2013-03-03 08:54:00,
2013-03-03 04:01:00,38.0,31.0,30.02,WNW,283,0.0,0.0,75,0.00,,,0.00,,2013-03-03 09:01:00,
2013-03-03 04:11:00,38.0,31.0,30.02,WNW,283,0.0,0.0,75,0.00,,,0.00,,2013-03-03 09:11:00,
2013-03-03 04:21:00,38.0,31.0,30.03,NW,316,0.0,0.0,75,0.00,,,0.00,,2013-03-03 09:21:00,
2013-03-03 04:32:00,38.0,31.0,30.03,WNW,294,0.0,4.0,76,0.00,,,0.00,,2013-03-03 09:32:00,
2013-03-03 04:41:00,38.0,31.0,30.03,WNW,294,0.0,4.0,76,0.00,,,0.00,,2013-03-03 09:41:00,
2013-03-03 04:52:00,38.0,31.0,30.03,NW,307,3.0,0.0,76,0.00,,,0.00,,2013-03-03 09:52:00,
2013-03-03 05:01:00,38.0,31.0,30.04,West,269,0.0,3.0,77,0.00,,,0.00,,2013-03-03 10:01:00,
2013-03-03 05:11:00,38.0,31.0,30.04,West,269,0.0,3.0,77,0.00,,,0.00,,2013-03-03 10:11:00,
2013-03-03 05:21:00,38.0,31.0,30.02,NW,311,0.0,0.0,77,0.00,,,0.00,,2013-03-03 10:21:00,
2013-03-03 05:32:00,38.0,31.0,30.03,North,10,0.0,0.0,77,0.00,,,0.00,,2013-03-03 10:32:00,
2013-03-03 05:42:00,38.0,31.0,30.03,North,10,0.0,0.0,77,0.00,,,0.00,,2013-03-03 10:42:00,
2013-03-03 05:52:00,38.0,31.0,30.03,WNW,291,3.0,3.0,77,0.00,,,0.00,,2013-03-03 10:52:00,
2013-03-03 06:01:00,38.0,31.0,30.04,West,269,2.0,2.0,77,0.00,,,0.00,,2013-03-03 11:01:00,
2013-03-03 06:11:00,38.0,31.0,30.04,West,269,2.0,2.0,77,0.00,,,0.00,,2013-03-03 11:11:00,
2013-03-03 06:22:00,38.0,31.0,30.04,West,280,1.0,4.0,77,0.00,,,0.00,,2013-03-03 11:22:00,
2013-03-03 06:32:00,38.0,31.0,30.04,NW,318,0.0,0.0,77,0.00,,,0.00,,2013-03-03 11:32:00,
2013-03-03 06:42:00,38.0,31.0,30.04,NW,318,0.0,0.0,77,0.00,,,0.00,,2013-03-03 11:42:00,
2013-03-03 06:52:00,38.0,32.0,30.04,WNW,288,1.0,3.0,78,0.00,,,0.00,,2013-03-03 11:52:00,
2013-03-03 07:01:00,37.0,31.0,30.06,WNW,294,3.0,0.0,78,0.00,,,0.00,,2013-03-03 12:01:00,
2013-03-03 07:11:00,37.0,31.0,30.06,WNW,294,3.0,0.0,78,0.00,,,0.00,,2013-03-03 12:11:00,
2013-03-03 07:21:00,38.0,32.0,30.06,West,263,0.0,3.0,79,0.00,,,0.00,,2013-03-03 12:21:00,
2013-03-03 07:32:00,38.0,32.0,30.06,WNW,297,2.0,0.0,79,0.00,,,0.00,,2013-03-03 12:32:00,
2013-03-03 07:43:00,38.0,32.0,30.06,WNW,297,2.0,0.0,79,0.00,,,0.00,,2013-03-03 12:43:00,
2013-03-03 07:53:00,39.0,33.0,30.07,NW,315,4.0,4.0,78,0.00,,,0.00,,2013-03-03 12:53:00,
2013-03-03 08:01:00,39.0,32.0,30.07,WNW,298,3.0,4.0,77,0.00,,,0.00,,2013-03-03 13:01:00,
2013-03-03 08:11:00,39.0,32.0,30.07,WNW,298,3.0,4.0,77,0.00,,,0.00,,2013-03-03 13:11:00,
2013-03-03 08:22:00,40.0,32.0,30.07,WNW,295,5.0,5.0,74,0.00,,,0.00,,2013-03-03 13:22:00,
2013-03-03 08:32:00,40.0,32.0,30.08,NW,323,4.0,6.0,73,0.00,,,0.00,,2013-03-03 13:32:00,
2013-03-03 08:42:00,40.0,32.0,30.08,NW,323,4.0,6.0,73,0.00,,,0.00,,2013-03-03 13:42:00,
2013-03-03 08:52:00,41.0,33.0,30.07,West,274,5.0,5.0,72,0.00,,,0.00,,2013-03-03 13:52:00,
2013-03-03 09:02:00,41.0,32.0,30.08,NNE,14,6.0,6.0,71,0.00,,,0.00,,2013-03-03 14:02:00,
2013-03-03 09:11:00,41.0,32.0,30.08,NNE,14,6.0,6.0,71,0.00,,,0.00,,2013-03-03 14:11:00,
2013-03-03 09:21:00,42.0,33.0,30.07,WSW,256,3.0,3.0,70,0.00,,,0.00,,2013-03-03 14:21:00,
2013-03-03 09:32:00,44.0,33.0,30.08,WNW,297,5.0,8.0,65,0.00,,,0.00,,2013-03-03 14:32:00,
2013-03-03 09:42:00,44.0,33.0,30.08,WNW,297,5.0,8.0,65,0.00,,,0.00,,2013-03-03 14:42:00,
2013-03-03 09:52:00,45.0,33.0,30.08,WNW,294,4.0,0.0,62,0.00,,,0.00,,2013-03-03 14:52:00,
2013-03-03 10:02:00,46.0,31.0,30.08,NNW,333,5.0,9.0,56,0.00,,,0.00,,2013-03-03 15:02:00,
2013-03-03 10:11:00,46.0,31.0,30.08,NNW,333,5.0,9.0,56,0.00,,,0.00,,2013-03-03 15:11:00,
2013-03-03 10:22:00,47.0,32.0,30.07,West,274,0.0,0.0,56,0.00,,,0.00,,2013-03-03 15:22:00,
2013-03-03 10:32:00,48.0,32.0,30.07,NW,322,8.0,8.0,53,0.00,,,0.00,,2013-03-03 15:32:00,
2013-03-03 10:42:00,48.0,32.0,30.07,NW,322,8.0,8.0,53,0.00,,,0.00,,2013-03-03 15:42:00,
2013-03-03 10:52:00,48.0,33.0,30.07,North,359,0.0,0.0,55,0.00,,,0.00,,2013-03-03 15:52:00,
2013-03-03 11:01:00,48.0,32.0,30.08,NW,308,7.0,7.0,54,0.00,,,0.00,,2013-03-03 16:01:00,
2013-03-03 11:12:00,48.0,32.0,30.08,NW,308,7.0,7.0,54,0.00,,,0.00,,2013-03-03 16:12:00,
2013-03-03 11:22:00,49.0,33.0,30.08,WSW,246,6.0,9.0,54,0.00,,,0.00,,2013-03-03 16:22:00,
2013-03-03 11:32:00,49.0,33.0,30.07,West,267,5.0,10.0,53,0.00,,,0.00,,2013-03-03 16:32:00,
2013-03-03 11:42:00,49.0,33.0,30.07,West,267,5.0,10.0,53,0.00,,,0.00,,2013-03-03 16:42:00,
2013-03-03 11:52:00,50.0,34.0,30.07,WNW,302,5.0,14.0,53,0.00,,,0.00,,2013-03-03 16:52:00,
2013-03-03 12:01:00,50.0,34.0,30.06,West,281,7.0,9.0,53,0.00,,,0.00,,2013-03-03 17:01:00,
2013-03-03 12:11:00,51.0,33.0,30.06,WNW,283,13.0,13.0,50,0.00,,,0.00,,2013-03-03 17:11:00,
2013-03-03 12:22:00,51.0,33.0,30.06,WNW,283,13.0,13.0,50,0.00,,,0.00,,2013-03-03 17:22:00,
2013-03-03 12:32:00,52.0,33.0,30.06,WSW,256,7.0,10.0,49,0.00,,,0.00,,2013-03-03 17:32:00,
2013-03-03 12:42:00,52.0,33.0,30.06,WSW,256,7.0,10.0,49,0.00,,,0.00,,2013-03-03 17:42:00,
2013-03-03 12:52:00,52.0,34.0,30.05,West,270,7.0,7.0,50,0.00,,,0.00,,2013-03-03 17:52:00,
2013-03-03 13:02:00,54.0,35.0,30.05,North,359,8.0,8.0,49,0.00,,,0.00,,2013-03-03 18:02:00,
2013-03-03 13:11:00,54.0,35.0,30.05,North,359,8.0,8.0,49,0.00,,,0.00,,2013-03-03 18:11:00,
2013-03-03 13:21:00,53.0,33.0,30.04,SW,233,8.0,12.0,47,0.00,,,0.00,,2013-03-03 18:21:00,
2013-03-03 13:32:00,52.0,33.0,30.03,WNW,300,10.0,10.0,48,0.00,,,0.00,,2013-03-03 18:32:00,
2013-03-03 13:42:00,52.0,33.0,30.03,WNW,300,10.0,10.0,48,0.00,,,0.00,,2013-03-03 18:42:00,
2013-03-03 13:52:00,52.0,33.0,30.03,WSW,248,10.0,10.0,48,0.00,,,0.00,,2013-03-03 18:52:00,
2013-03-03 14:02:00,52.0,33.0,30.03,WNW,293,5.0,0.0,49,0.00,,,0.00,,2013-03-03 19:02:00,
2013-03-03 14:11:00,54.0,34.0,30.02,SW,217,7.0,16.0,46,0.00,,,0.00,,2013-03-03 19:11:00,
2013-03-03 14:22:00,54.0,34.0,30.02,SW,217,7.0,16.0,46,0.00,,,0.00,,2013-03-03 19:22:00,
2013-03-03 14:32:00,53.0,34.0,30.02,North,359,9.0,9.0,48,0.00,,,0.00,,2013-03-03 19:32:00,
2013-03-03 14:42:00,53.0,34.0,30.02,North,359,9.0,9.0,48,0.00,,,0.00,,2013-03-03 19:42:00,
2013-03-03 14:52:00,54.0,34.0,30.02,North,359,0.0,0.0,47,0.00,,,0.00,,2013-03-03 19:52:00,
2013-03-03 15:01:00,53.0,34.0,30.02,West,274,6.0,6.0,48,0.00,,,0.00,,2013-03-03 20:01:00,
2013-03-03 15:11:00,53.0,34.0,30.02,West,274,6.0,6.0,48,0.00,,,0.00,,2013-03-03 20:11:00,
2013-03-03 15:21:00,53.0,33.0,30.02,North,359,6.0,6.0,46,0.00,,,0.00,,2013-03-03 20:21:00,
2013-03-03 15:32:00,53.0,33.0,30.02,North,359,1.0,1.0,47,0.00,,,0.00,,2013-03-03 20:32:00,
2013-03-03 15:42:00,53.0,33.0,30.02,North,359,1.0,1.0,47,0.00,,,0.00,,2013-03-03 20:42:00,
2013-03-03 15:53:00,53.0,33.0,30.02,North,359,6.0,8.0,47,0.00,,,0.00,,2013-03-03 20:53:00,
2013-03-03 16:02:00,52.0,33.0,30.03,WSW,239,2.0,0.0,48,0.00,,,0.00,,2013-03-03 21:02:00,
2013-03-03 16:11:00,52.0,33.0,30.03,WSW,239,2.0,0.0,48,0.00,,,0.00,,2013-03-03 21:11:00,
2013-03-03 16:22:00,52.0,32.0,30.02,North,359,7.0,0.0,47,0.00,,,0.00,,2013-03-03 21:22:00,
2013-03-03 16:32:00,52.0,32.0,30.03,North,359,1.0,0.0,47,0.00,,,0.00,,2013-03-03 21:32:00,
2013-03-03 16:42:00,52.0,32.0,30.03,North,359,1.0,0.0,47,0.00,,,0.00,,2013-03-03 21:42:00,
2013-03-03 16:52:00,51.0,33.0,30.03,West,264,3.0,11.0,49,0.00,,,0.00,,2013-03-03 21:52:00,
2013-03-03 17:01:00,51.0,33.0,30.03,WSW,257,0.0,3.0,49,0.00,,,0.00,,2013-03-03 22:01:00,
2013-03-03 17:11:00,51.0,33.0,30.03,WSW,257,0.0,3.0,49,0.00,,,0.00,,2013-03-03 22:11:00,
2013-03-03 17:22:00,51.0,32.0,30.03,WSW,255,1.0,0.0,48,0.00,,,0.00,,2013-03-03 22:22:00,
2013-03-03 17:32:00,50.0,32.0,30.04,North,359,0.0,0.0,50,0.00,,,0.00,,2013-03-03 22:32:00,
2013-03-03 17:42:00,50.0,32.0,30.04,North,359,0.0,0.0,50,0.00,,,0.00,,2013-03-03 22:42:00,
2013-03-03 17:52:00,49.0,32.0,30.05,WSW,243,10.0,10.0,52,0.00,,,0.00,,2013-03-03 22:52:00,
2013-03-03 18:01:00,49.0,33.0,30.05,West,264,0.0,0.0,54,0.00,,,0.00,,2013-03-03 23:01:00,
2013-03-03 18:11:00,49.0,33.0,30.05,West,264,0.0,0.0,54,0.00,,,0.00,,2013-03-03 23:11:00,
2013-03-03 18:21:00,48.0,32.0,30.06,North,359,0.0,0.0,54,0.00,,,0.00,,2013-03-03 23:21:00,
2013-03-03 18:32:00,48.0,32.0,30.06,WNW,294,4.0,5.0,54,0.00,,,0.00,,2013-03-03 23:32:00,
2013-03-03 18:42:00,48.0,32.0,30.06,WNW,294,4.0,5.0,54,0.00,,,0.00,,2013-03-03 23:42:00,
2013-03-03 18:52:00,48.0,33.0,30.07,West,269,1.0,2.0,55,0.00,,,0.00,,2013-03-03 23:52:00,
2013-03-03 19:02:00,47.0,33.0,30.07,SW,231,4.0,4.0,57,0.00,,,0.00,,2013-03-04 00:02:00,
2013-03-03 19:11:00,47.0,33.0,30.07,SW,231,4.0,4.0,57,0.00,,,0.00,,2013-03-04 00:11:00,
2013-03-03 19:21:00,47.0,33.0,30.08,West,263,5.0,5.0,58,0.00,,,0.00,,2013-03-04 00:21:00,
2013-03-03 19:32:00,46.0,32.0,30.10,North,359,2.0,0.0,59,0.00,,,0.00,,2013-03-04 00:32:00,
2013-03-03 19:42:00,46.0,32.0,30.10,North,359,2.0,0.0,59,0.00,,,0.00,,2013-03-04 00:42:00,
2013-03-03 19:52:00,46.0,33.0,30.10,North,359,6.0,6.0,60,0.00,,,0.00,,2013-03-04 00:52:00,
2013-03-03 20:01:00,46.0,34.0,30.11,North,359,0.0,0.0,62,0.00,,,0.00,,2013-03-04 01:01:00,
2013-03-03 20:12:00,46.0,34.0,30.11,North,359,0.0,0.0,62,0.00,,,0.00,,2013-03-04 01:12:00,
2013-03-03 20:21:00,45.0,33.0,30.11,West,260,4.0,6.0,63,0.00,,,0.00,,2013-03-04 01:21:00,
2013-03-03 20:32:00,45.0,33.0,30.11,SSW,212,2.0,0.0,63,0.00,,,0.00,,2013-03-04 01:32:00,
2013-03-03 20:42:00,45.0,33.0,30.11,SSW,212,2.0,0.0,63,0.00,,,0.00,,2013-03-04 01:42:00,
2013-03-03 20:52:00,44.0,33.0,30.13,WSW,238,0.0,0.0,64,0.00,,,0.00,,2013-03-04 01:52:00,
2013-03-03 21:01:00,44.0,33.0,30.13,WSW,252,0.0,0.0,66,0.00,,,0.00,,2013-03-04 02:01:00,
2013-03-03 21:11:00,44.0,34.0,30.14,SW,231,0.0,0.0,67,0.00,,,0.00,,2013-03-04 02:11:00,
2013-03-03 21:22:00,44.0,34.0,30.14,SW,231,0.0,0.0,67,0.00,,,0.00,,2013-03-04 02:22:00,
2013-03-03 21:32:00,43.0,33.0,30.14,WSW,239,4.0,4.0,68,0.00,,,0.00,,2013-03-04 02:32:00,
2013-03-03 21:42:00,43.0,33.0,30.14,WSW,239,4.0,4.0,68,0.00,,,0.00,,2013-03-04 02:42:00,
2013-03-03 21:53:00,43.0,34.0,30.15,West,274,0.0,0.0,69,0.00,,,0.00,,2013-03-04 02:53:00,
2013-03-03 22:02:00,43.0,34.0,30.15,WSW,238,0.0,0.0,69,0.00,,,0.00,,2013-03-04 03:02:00,
2013-03-03 22:11:00,43.0,34.0,30.15,WSW,238,0.0,0.0,69,0.00,,,0.00,,2013-03-04 03:11:00,
2013-03-03 22:22:00,43.0,34.0,30.16,WSW,252,0.0,2.0,70,0.00,,,0.00,,2013-03-04 03:22:00,
2013-03-03 22:32:00,43.0,34.0,30.16,West,262,0.0,0.0,70,0.00,,,0.00,,2013-03-04 03:32:00,
2013-03-03 22:42:00,42.0,33.0,30.17,West,267,3.0,3.0,71,0.00,,,0.00,,2013-03-04 03:42:00,
2013-03-03 22:53:00,42.0,33.0,30.17,West,267,3.0,3.0,71,0.00,,,0.00,,2013-03-04 03:53:00,
2013-03-03 23:01:00,42.0,34.0,30.17,WNW,295,5.0,7.0,72,0.00,,,0.00,,2013-03-04 04:01:00,
2013-03-03 23:11:00,42.0,34.0,30.17,WNW,295,5.0,7.0,72,0.00,,,0.00,,2013-03-04 04:11:00,
2013-03-03 23:22:00,42.0,33.0,30.17,WNW,300,3.0,4.0,71,0.00,,,0.00,,2013-03-04 04:22:00,
2013-03-03 23:32:00,42.0,33.0,30.17,South,186,2.0,0.0,71,0.00,,,0.00,,2013-03-04 04:32:00,
2013-03-03 23:42:00,42.0,33.0,30.17,South,186,2.0,0.0,71,0.00,,,0.00,,2013-03-04 04:42:00,
2013-03-03 23:52:00,42.0,33.0,30.18,West,270,0.0,0.0,71,0.00,,,0.00,,2013-03-04 04:52:00,